ARIANE 2 DEB

基本信息
目录编号:
27594
目录名称:
ARIANE 2 DEB
国际标识:
1988-040D
轨道中心:
EARTH
物体状态:
在轨
发射日期:
1988-05-17 UTC
轨道信息
数据来源: 国际轨道数据
星历时间: 2026-07-14T08:26:20+0800
半长轴: 23767.645km
偏心率: 0.7124694
轨道倾角: 7.653°
近地点辐角: 232.131°
升交点赤经: 280.028°
平近点角: 39.897°
近地点: 455.788km
远地点: 34323.228km
周期: 607.770分钟
每日圈数: 2.369319
详细信息
发射场:
FRGUI
轨道高度:
LEO
数据来源:
AOE Integration Group
参考系:
TEME
时间系统:
UTC
历元类型:
SGP4
2D轨道图
3D轨道图
轨道高度分析图
轨道倾角分析图
轨道综合分析图
查看轨道综合分析图